GSAT-29 (43698 NORAD) Tracking and Keplerian Element Data

This shows tracking and keplerian element data for the satellite.

Feedback or suggestion? Click here.




ElementValue
Catalog43698
NameGSAT-29
Epoch Orbit193
Epoch Day145.89007791
Epoch Year2019
RAAN277.3937
Inclination0.0197
Eccentricity0.0003442
Argument of Perigee140.6425
Mean Anonmoly200.5786
Mean Motion1.00272972
Decay Rate8.1E-07
L11 43698U 18089A 19145.89007791 .00000081 00000-0 00000-0 0 9996
L22 43698 0.0197 277.3937 0003442 140.6425 200.5786 1.00272972 1933

Live tracking and technical data element details for GSAT-29 (NORAD 43698). GSAT-29 can be tracked NOW for your location showing map with azimuth and elevation plus other details from your city location.

Track the satellite on the map from your city or location and see movement details for azimuth, elevation, latitude, longitude, range, height, and movement on the map or in text.







IsCatalogInMostPopularTable: catalog: 43698, numindb: 116
Update: records affected: 1



GetName: 43698 GSAT-29

Hit Count: updated at: Sun, 26 May 2019 18:59:36 GMT